Location: Goettingen
(51.5300°N, 9.9433°E)
Time: 08:48:06
(UTC+01:00)

ISS - Pass Details

Date: 10 December 2018
Orbit: 401 x 408 km, 51.6° (Epoch: 12 December)

Event Time Altitude Azimuth Distance (km) Brightness Sun altitude
Rises 17:27:18 0° 283° (WNW) 2,321 1.0 -11.0°
Reaches altitude 10° 17:29:26 10° 278° (W) 1,459 0.0 -11.3°
Maximum altitude 17:32:35 47° 203° (SSW) 540 -2.9 -11.8°
Drops below altitude 10° 17:35:44 10° 128° (SE) 1,451 -1.3 -12.3°
Enters shadow 17:36:19 - 126° (SE) 1,685 -1.0 -12.3°
